Time,TemperatureF,DewpointF,PressureIn,WindDirection,WindDirectionDegrees,WindSpeedMPH,WindSpeedGustMPH,Humidity,HourlyPrecipIn,Conditions,Clouds,dailyrainin,SoftwareType,DateUTC
2013-06-20 00:00:00,62.1,57.5,30.09,ESE,114,0.0,0.0,85,0.00,,---,0.00,VWS V14.01,2013-06-20 04:00:00,
2013-06-20 00:01:00,62.1,57.5,30.09,ESE,114,0.0,0.0,85,0.00,,---,0.00,VWS V14.00,2013-06-20 04:01:00,
2013-06-20 00:30:00,61.7,57.5,30.09,ESE,114,0.0,0.0,86,0.00,,---,0.00,VWS V14.00,2013-06-20 04:30:00,
2013-06-20 01:00:00,60.6,57.0,30.10,ESE,115,0.0,0.0,88,0.00,,---,0.00,VWS V14.00,2013-06-20 05:00:00,
2013-06-20 01:30:00,60.0,57.1,30.10,ESE,114,0.0,0.0,90,0.00,,---,0.00,VWS V14.00,2013-06-20 05:30:00,
2013-06-20 02:00:00,61.1,56.2,30.11,ESE,123,1.0,2.0,84,0.00,,---,0.00,VWS V14.01,2013-06-20 06:00:00,
2013-06-20 02:01:00,61.1,56.2,30.11,ESE,123,1.0,2.0,84,0.00,,---,0.00,VWS V14.00,2013-06-20 06:01:00,
2013-06-20 02:30:00,61.3,55.1,30.11,ESE,114,1.0,2.0,80,0.00,,---,0.00,VWS V14.00,2013-06-20 06:30:00,
2013-06-20 03:00:00,61.1,54.5,30.11,SE,124,1.0,2.0,79,0.00,,---,0.00,VWS V14.01,2013-06-20 07:00:00,
2013-06-20 03:01:00,61.1,54.5,30.11,SE,124,1.0,2.0,79,0.00,,---,0.00,VWS V14.00,2013-06-20 07:01:00,
2013-06-20 03:30:00,60.4,54.5,30.12,ESE,119,0.0,2.0,81,0.00,,---,0.00,VWS V14.00,2013-06-20 07:30:00,
2013-06-20 04:00:00,60.1,54.3,30.12,ESE,121,0.0,2.0,81,0.00,,---,0.00,VWS V14.01,2013-06-20 08:00:00,
2013-06-20 04:01:00,60.1,54.3,30.12,ESE,121,0.0,2.0,81,0.00,,---,0.00,VWS V14.00,2013-06-20 08:01:00,
2013-06-20 04:30:00,59.3,54.5,30.12,ESE,122,0.0,0.0,84,0.00,,---,0.00,VWS V14.00,2013-06-20 08:30:00,
2013-06-20 05:00:00,58.7,54.2,30.13,ESE,122,0.0,0.0,85,0.00,,---,0.00,VWS V14.01,2013-06-20 09:00:00,
2013-06-20 05:01:00,58.7,54.2,30.13,ESE,122,0.0,0.0,85,0.00,,---,0.00,VWS V14.00,2013-06-20 09:01:00,
2013-06-20 05:30:00,57.9,54.1,30.14,ESE,122,0.0,0.0,87,0.00,,---,0.00,VWS V14.00,2013-06-20 09:30:00,
2013-06-20 06:00:00,57.1,53.9,30.13,ESE,122,0.0,0.0,89,0.00,,---,0.00,VWS V14.01,2013-06-20 10:00:00,
2013-06-20 06:01:00,57.1,53.9,30.13,ESE,122,0.0,0.0,89,0.00,,---,0.00,VWS V14.00,2013-06-20 10:01:00,
2013-06-20 06:30:00,57.1,54.2,30.14,ESE,121,0.0,0.0,90,0.00,,---,0.00,VWS V14.00,2013-06-20 10:30:00,
2013-06-20 07:00:00,57.6,54.7,30.14,ESE,121,0.0,0.0,90,0.00,,---,0.00,VWS V14.00,2013-06-20 11:00:00,
2013-06-20 07:30:00,60.0,55.8,30.14,SE,130,0.0,0.0,86,0.00,,---,0.00,VWS V14.00,2013-06-20 11:30:00,
2013-06-20 08:00:00,61.3,56.4,30.15,SE,141,0.0,0.0,84,0.00,,---,0.00,VWS V14.00,2013-06-20 12:00:00,
2013-06-20 08:30:00,63.9,57.6,30.16,SE,125,0.0,0.0,80,0.00,,---,0.00,VWS V14.00,2013-06-20 12:30:00,
2013-06-20 09:00:00,66.3,58.9,30.16,SE,129,0.0,0.0,77,0.00,,---,0.00,VWS V14.00,2013-06-20 13:00:00,
2013-06-20 09:30:00,68.9,60.7,30.16,ESE,112,0.0,0.0,75,0.00,,---,0.00,VWS V14.00,2013-06-20 13:30:00,
2013-06-20 10:00:00,70.6,61.1,30.16,ENE,61,0.0,2.0,72,0.00,,---,0.00,VWS V14.00,2013-06-20 14:00:00,
2013-06-20 10:30:00,73.0,61.8,30.16,SE,139,0.0,3.0,68,0.00,,---,0.00,VWS V14.00,2013-06-20 14:30:00,
2013-06-20 11:00:00,73.9,63.1,30.16,WNW,283,1.0,2.0,69,0.00,,---,0.00,VWS V14.00,2013-06-20 15:00:00,
2013-06-20 11:30:00,75.5,62.5,30.16,NNE,26,0.0,2.0,64,0.00,,---,0.00,VWS V14.00,2013-06-20 15:30:00,
2013-06-20 12:00:00,75.5,63.4,30.16,WNW,289,2.0,4.0,66,0.00,,---,0.00,VWS V14.00,2013-06-20 16:00:00,
2013-06-20 12:30:00,75.6,63.9,30.16,WSW,250,0.0,4.0,67,0.00,,---,0.00,VWS V14.00,2013-06-20 16:30:00,
2013-06-20 13:00:00,76.0,63.4,30.15,SW,233,0.0,3.0,65,0.00,,---,0.00,VWS V14.01,2013-06-20 17:00:00,
2013-06-20 13:01:00,76.0,63.4,30.15,SW,233,0.0,3.0,65,0.00,,---,0.00,VWS V14.00,2013-06-20 17:01:00,
2013-06-20 13:30:00,77.4,63.8,30.16,West,280,0.0,2.0,63,0.00,,---,0.00,VWS V14.00,2013-06-20 17:30:00,
2013-06-20 14:00:00,76.7,64.9,30.16,WSW,248,0.0,3.0,67,0.00,,---,0.00,VWS V14.01,2013-06-20 18:00:00,
2013-06-20 14:01:00,76.7,64.9,30.16,WSW,248,0.0,3.0,67,0.00,,---,0.00,VWS V14.00,2013-06-20 18:01:00,
2013-06-20 14:30:00,76.7,65.8,30.15,West,260,1.0,2.0,69,0.00,,---,0.00,VWS V14.00,2013-06-20 18:30:00,
2013-06-20 15:00:00,76.1,65.6,30.15,WNW,284,1.0,3.0,70,0.00,,---,0.00,VWS V14.01,2013-06-20 19:00:00,
2013-06-20 15:01:00,76.1,65.6,30.15,WNW,284,1.0,3.0,70,0.00,,---,0.00,VWS V14.00,2013-06-20 19:01:00,
2013-06-20 15:30:00,80.1,66.8,30.14,NNW,333,1.0,3.0,64,0.00,,---,0.00,VWS V14.00,2013-06-20 19:30:00,
2013-06-20 16:00:00,81.2,67.4,30.13,NNW,338,1.0,2.0,63,0.00,,---,0.00,VWS V14.01,2013-06-20 20:00:00,
2013-06-20 16:01:00,81.2,67.4,30.13,NNW,338,1.0,2.0,63,0.00,,---,0.00,VWS V14.00,2013-06-20 20:01:00,
2013-06-20 16:30:00,81.8,66.6,30.13,NNW,336,1.0,3.0,60,0.00,,---,0.00,VWS V14.00,2013-06-20 20:30:00,
2013-06-20 17:00:00,82.1,66.4,30.12,WNW,288,1.0,3.0,59,0.00,,---,0.00,VWS V14.00,2013-06-20 21:00:00,
2013-06-20 17:30:00,83.2,66.9,30.11,West,273,1.0,2.0,58,0.00,,---,0.00,VWS V14.00,2013-06-20 21:30:00,
2013-06-20 18:00:00,84.6,69.2,30.10,SE,127,0.0,3.0,60,0.00,,---,0.00,VWS V14.01,2013-06-20 22:00:00,
2013-06-20 18:01:00,84.6,69.2,30.10,SE,127,0.0,3.0,60,0.00,,---,0.00,VWS V14.00,2013-06-20 22:01:00,
2013-06-20 18:30:00,85.5,68.5,30.10,West,276,0.0,3.0,57,0.00,,---,0.00,VWS V14.00,2013-06-20 22:30:00,
2013-06-20 19:00:00,85.3,68.9,30.09,ESE,121,2.0,2.0,58,0.00,,---,0.00,VWS V14.00,2013-06-20 23:00:00,
2013-06-20 19:30:00,84.1,68.2,30.09,ESE,114,0.0,2.0,59,0.00,,---,0.00,VWS V14.00,2013-06-20 23:30:00,
2013-06-20 20:00:00,83.0,67.7,30.10,ESE,118,0.0,2.0,60,0.00,,---,0.00,VWS V14.00,2013-06-21 00:00:00,
2013-06-20 20:30:00,80.8,68.4,30.09,ESE,118,0.0,0.0,66,0.00,,---,0.00,VWS V14.00,2013-06-21 00:30:00,
2013-06-20 21:00:00,77.0,67.7,30.09,ESE,118,0.0,0.0,73,0.00,,---,0.00,VWS V14.00,2013-06-21 01:00:00,
2013-06-20 21:30:00,73.8,66.9,30.09,ESE,118,0.0,0.0,79,0.00,,---,0.00,VWS V14.00,2013-06-21 01:30:00,
2013-06-20 22:00:00,72.3,66.2,30.10,ESE,108,0.0,0.0,81,0.00,,---,0.00,VWS V14.00,2013-06-21 02:00:00,
2013-06-20 22:30:00,71.3,66.2,30.10,ESE,110,0.0,0.0,84,0.00,,---,0.00,VWS V14.00,2013-06-21 02:30:00,
2013-06-20 23:00:00,70.5,66.1,30.12,ESE,110,0.0,2.0,86,0.00,,---,0.00,VWS V14.00,2013-06-21 03:00:00,
2013-06-20 23:30:00,69.8,65.8,30.12,ESE,115,1.0,2.0,87,0.00,,---,0.00,VWS V14.00,2013-06-21 03:30:00,